TimeGMT,TemperatureF,Dew PointF,Humidity,Sea Level PressureIn,VisibilityMPH,Wind Direction,Wind SpeedMPH,Gust SpeedMPH,PrecipitationIn,Events,Conditions,WindDirDegrees,DateUTC
12:50 AM,55.4,53.6,94,30.15,5.0,WSW,20.7,32.2,N/A,Rain,Rain,240,2011-11-25 00:50:00
1:50 AM,51.8,48.2,88,30.18,6.2,West,12.7,-,N/A,,Mostly Cloudy,270,2011-11-25 01:50:00
2:50 AM,52,47,79,30.22,9,West,15.0,,,,Partly Cloudy,280,2011-11-25 02:50:00
2:50 AM,51.8,48.2,88,30.21,6.2,West,15.0,-,N/A,,Mostly Cloudy,280,2011-11-25 02:50:00
3:50 AM,50.0,44.6,82,30.21,6.2,WNW,12.7,-,N/A,,Scattered Clouds,290,2011-11-25 03:50:00
4:50 AM,48.2,42.8,82,30.24,6.2,WNW,11.5,-,N/A,,Scattered Clouds,290,2011-11-25 04:50:00
5:50 AM,48,43,76,30.28,12,WNW,9.2,,,,Mostly Cloudy,290,2011-11-25 05:50:00
5:50 AM,48.2,42.8,82,30.27,6.2,WNW,9.2,-,N/A,,Scattered Clouds,290,2011-11-25 05:50:00
6:50 AM,50.0,42.8,76,30.27,6.2,West,9.2,-,N/A,,Scattered Clouds,280,2011-11-25 06:50:00
7:50 AM,48.2,41.0,76,30.30,6.2,WNW,12.7,-,N/A,,Partly Cloudy,290,2011-11-25 07:50:00
8:50 AM,50,41,63,30.35,12,West,11.5,,,,Scattered Clouds,280,2011-11-25 08:50:00
9:50 AM,51.8,39.2,62,30.36,6.2,West,15.0,26.5,N/A,,Scattered Clouds,280,2011-11-25 09:50:00
11:50 AM,53,38,47,30.40,12,WNW,13.8,,,,Scattered Clouds,290,2011-11-25 11:50:00
11:50 AM,53.6,39.2,58,30.39,6.2,WNW,13.8,25.3,N/A,,Mostly Cloudy,290,2011-11-25 11:50:00
12:50 PM,53.6,41.0,62,30.39,6.2,West,12.7,24.2,N/A,,Scattered Clouds,280,2011-11-25 12:50:00
1:50 PM,51.8,37.4,58,30.39,6.2,WNW,15.0,-,N/A,,Partly Cloudy,300,2011-11-25 13:50:00
2:50 PM,52,40,53,30.41,12,West,13.8,,,,Partly Cloudy,280,2011-11-25 14:50:00
2:50 PM,51.8,39.2,62,30.39,6.2,West,13.8,-,N/A,,Scattered Clouds,280,2011-11-25 14:50:00
4:50 PM,51.8,41.0,67,30.42,6.2,WNW,12.7,-,N/A,,Scattered Clouds,290,2011-11-25 16:50:00
5:50 PM,51,42,64,30.43,12,West,11.5,,,,Mostly Cloudy,270,2011-11-25 17:50:00
5:50 PM,51.8,42.8,71,30.42,6.2,West,11.5,-,N/A,,Mostly Cloudy,270,2011-11-25 17:50:00
6:50 PM,51.8,42.8,71,30.42,6.2,West,12.7,-,N/A,,Partly Cloudy,280,2011-11-25 18:50:00
7:50 PM,50.0,44.6,82,30.45,6.2,West,9.2,-,N/A,,Partly Cloudy,280,2011-11-25 19:50:00
8:50 PM,51,44,68,30.46,16,West,10.4,,,,Scattered Clouds,280,2011-11-25 20:50:00
8:50 PM,51.8,44.6,76,30.45,6.2,West,10.4,-,N/A,,Partly Cloudy,280,2011-11-25 20:50:00
9:50 PM,50.0,42.8,76,30.42,-9999.0,West,8.1,-,N/A,,Clear,260,2011-11-25 21:50:00
10:50 PM,51.8,44.6,76,30.45,-9999.0,West,9.2,-,N/A,,Clear,270,2011-11-25 22:50:00
11:50 PM,52,43,63,30.44,16,WSW,15.0,,,,Scattered Clouds,250,2011-11-25 23:50:00
11:50 PM,51.8,42.8,71,30.42,6.2,WSW,15.0,-,N/A,,Partly Cloudy,250,2011-11-25 23:50:00